• In Hungary
  • List of Countries
  • For 7 days
  • Water Temperature
  • Satellite Maps
  • Weather Map
  • News
  • Weather Widgets
  • user-avatar
    Login

    Hourly Weather Mayachnaya

    Today, 23 July, Monday

    Time Temperature Precipitation Wind Pressure Humidity
    00:00 +18°C° 0 mm 7 mps 749 mmHg 50%
    01:00 +17°C° 0 mm 7 mps 749 mmHg 51%
    02:00 +16°C° 0 mm 7 mps 749 mmHg 53%
    03:00 +16°C° 0 mm 6 mps 749 mmHg 56%
    04:00 +15°C° 0 mm 6 mps 750 mmHg 58%
    05:00 +15°C° 0 mm 6 mps 750 mmHg 58%
    06:00 +16°C° 0 mm 7 mps 750 mmHg 58%
    07:00 +16°C° 0 mm 7 mps 750 mmHg 58%
    08:00 +17°C° 0 mm 7 mps 750 mmHg 54%
    09:00 +20°C° 0 mm 7 mps 751 mmHg 49%
    10:00 +21°C° 0 mm 7 mps 751 mmHg 45%
    11:00 +22°C° 0 mm 6 mps 751 mmHg 41%
    12:00 +24°C° 0 mm 6 mps 751 mmHg 38%
    13:00 +26°C° 0 mm 6 mps 751 mmHg 34%
    14:00 +26°C° 0 mm 6 mps 751 mmHg 33%
    15:00 +27°C° 0 mm 6 mps 751 mmHg 31%
    16:00 +27°C° 0 mm 5 mps 751 mmHg 30%
    17:00 +26°C° 0 mm 5 mps 750 mmHg 33%
    18:00 +26°C° 0 mm 5 mps 750 mmHg 36%
    19:00 +25°C° 0 mm 4 mps 750 mmHg 39%
    20:00 +22°C° 0 mm 4 mps 751 mmHg 42%
    21:00 +21°C° 0 mm 4 mps 751 mmHg 46%
    22:00 +19°C° 0 mm 5 mps 752 mmHg 50%
    23:00 +19°C° 0 mm 4 mps 752 mmHg 51%

    Tomorrow, 24 July, Tuesday

    Time Temperature Precipitation Wind Pressure Humidity
    00:00 +18°C° 0 mm 4 mps 752 mmHg 53%
    01:00 +18°C° 0 mm 4 mps 752 mmHg 54%
    02:00 +17°C° 0 mm 4 mps 752 mmHg 57%
    03:00 +17°C° 0 mm 4 mps 752 mmHg 59%
    04:00 +15°C° 0 mm 4 mps 752 mmHg 61%
    05:00 +17°C° 0 mm 4 mps 753 mmHg 60%
    06:00 +18°C° 0 mm 4 mps 753 mmHg 59%
    07:00 +19°C° 0 mm 4 mps 753 mmHg 57%
    08:00 +21°C° 0 mm 4 mps 753 mmHg 52%
    09:00 +23°C° 0 mm 4 mps 753 mmHg 46%
    10:00 +26°C° 0 mm 4 mps 753 mmHg 40%
    11:00 +27°C° 0 mm 4 mps 753 mmHg 38%
    12:00 +28°C° 0 mm 4 mps 753 mmHg 36%
    13:00 +29°C° 0 mm 4 mps 753 mmHg 33%
    14:00 +30°C° 0 mm 4 mps 753 mmHg 33%
    15:00 +32°C° 0 mm 4 mps 752 mmHg 32%
    16:00 +32°C° 0 mm 4 mps 752 mmHg 32%
    17:00 +30°C° 0 mm 4 mps 752 mmHg 35%
    18:00 +30°C° 0 mm 4 mps 752 mmHg 39%
    19:00 +29°C° 0 mm 3 mps 752 mmHg 43%
    20:00 +27°C° 0 mm 4 mps 753 mmHg 47%
    21:00 +26°C° 0 mm 4 mps 753 mmHg 51%
    22:00 +23°C° 0 mm 4 mps 753 mmHg 56%
    23:00 +23°C° 0 mm 4 mps 753 mmHg 58%

    Day after tomorrow, 25 July, Wednesday

    Time Temperature Precipitation Wind Pressure Humidity
    00:00 +22°C° 0 mm 3 mps 753 mmHg 61%
    01:00 +21°C° 0 mm 3 mps 753 mmHg 64%
    02:00 +21°C° 0 mm 3 mps 753 mmHg 64%
    03:00 +21°C° 0 mm 3 mps 754 mmHg 64%
    04:00 +20°C° 0 mm 3 mps 754 mmHg 65%
    05:00 +21°C° 0 mm 3 mps 754 mmHg 61%
    06:00 +22°C° 0 mm 3 mps 754 mmHg 58%
    07:00 +24°C° 0 mm 3 mps 754 mmHg 55%
    08:00 +26°C° 0 mm 3 mps 754 mmHg 48%
    09:00 +28°C° 0 mm 3 mps 754 mmHg 42%
    10:00 +30°C° 0 mm 4 mps 754 mmHg 36%
    11:00 +32°C° 0 mm 4 mps 754 mmHg 34%
    12:00 +32°C° 0 mm 4 mps 754 mmHg 32%
    13:00 +33°C° 0 mm 5 mps 754 mmHg 30%
    14:00 +33°C° 0 mm 5 mps 754 mmHg 31%
    15:00 +33°C° 0 mm 5 mps 754 mmHg 32%
    16:00 +33°C° 0 mm 5 mps 754 mmHg 32%
    17:00 +32°C° 0 mm 4 mps 754 mmHg 35%
    18:00 +30°C° 0 mm 4 mps 754 mmHg 38%
    19:00 +29°C° 0 mm 4 mps 754 mmHg 41%
    20:00 +28°C° 0 mm 3 mps 754 mmHg 44%
    21:00 +27°C° 0 mm 3 mps 754 mmHg 47%
    22:00 +25°C° 0 mm 3 mps 754 mmHg 51%
    23:00 +25°C° 0 mm 3 mps 755 mmHg 53%

    26 July, Thursday

    Time Temperature Precipitation Wind Pressure Humidity
    00:00 +23°C° 0 mm 4 mps 755 mmHg 55%
    01:00 +23°C° 0 mm 4 mps 755 mmHg 58%
    02:00 +22°C° 0 mm 4 mps 755 mmHg 59%
    03:00 +21°C° 0 mm 4 mps 755 mmHg 60%
    04:00 +21°C° 0 mm 4 mps 755 mmHg 62%
    05:00 +22°C° 0 mm 4 mps 755 mmHg 60%
    06:00 +22°C° 0 mm 5 mps 755 mmHg 57%
    07:00 +23°C° 0 mm 5 mps 756 mmHg 55%
    08:00 +26°C° 0 mm 5 mps 756 mmHg 50%
    09:00 +27°C° 0 mm 6 mps 756 mmHg 44%
    10:00 +29°C° 0 mm 6 mps 756 mmHg 39%
    11:00 +29°C° 0 mm 6 mps 756 mmHg 36%
    12:00 +30°C° 0 mm 6 mps 755 mmHg 33%
    13:00 +32°C° 0 mm 6 mps 755 mmHg 30%
    14:00 +32°C° 0 mm 6 mps 755 mmHg 29%
    15:00 +33°C° 0 mm 6 mps 755 mmHg 29%
    16:00 +33°C° 0 mm 6 mps 755 mmHg 28%
    17:00 +32°C° 0 mm 5 mps 755 mmHg 31%
    18:00 +30°C° 0 mm 5 mps 755 mmHg 34%
    19:00 +29°C° 0 mm 4 mps 755 mmHg 37%
    20:00 +28°C° 0 mm 4 mps 755 mmHg 43%
    21:00 +27°C° 0 mm 4 mps 755 mmHg 48%
    22:00 +25°C° 0 mm 5 mps 755 mmHg 53%
    23:00 +25°C° 0 mm 4 mps 755 mmHg 55%

    27 July, Friday

    Time Temperature Precipitation Wind Pressure Humidity
    00:00 +23°C° 0 mm 4 mps 755 mmHg 56%
    01:00 +23°C° 0 mm 4 mps 755 mmHg 58%
    02:00 +22°C° 0 mm 4 mps 755 mmHg 58%
    03:00 +22°C° 0 mm 4 mps 755 mmHg 59%
    04:00 +21°C° 0 mm 4 mps 755 mmHg 60%
    05:00 +22°C° 0 mm 4 mps 755 mmHg 57%
    06:00 +23°C° 0 mm 4 mps 756 mmHg 54%
    07:00 +25°C° 0 mm 4 mps 756 mmHg 52%
    08:00 +27°C° 0 mm 4 mps 756 mmHg 46%
    09:00 +29°C° 0 mm 4 mps 756 mmHg 40%
    10:00 +32°C° 0 mm 4 mps 756 mmHg 34%
    11:00 +33°C° 0 mm 4 mps 755 mmHg 32%
    12:00 +33°C° 0 mm 4 mps 755 mmHg 31%
    13:00 +34°C° 0 mm 4 mps 755 mmHg 29%
    14:00 +34°C° 0 mm 4 mps 755 mmHg 29%
    15:00 +34°C° 0 mm 4 mps 754 mmHg 28%
    16:00 +34°C° 0 mm 3 mps 754 mmHg 28%
    17:00 +33°C° 0 mm 3 mps 754 mmHg 31%
    18:00 +33°C° 0 mm 3 mps 754 mmHg 34%
    19:00 +31°C° 0 mm 3 mps 754 mmHg 37%
    20:00 +29°C° 0 mm 3 mps 754 mmHg 41%
    21:00 +28°C° 0 mm 3 mps 754 mmHg 44%
    22:00 +26°C° 0 mm 3 mps 754 mmHg 48%
    23:00 +25°C° 0 mm 3 mps 754 mmHg 51%

    28 July, Saturday

    Time Temperature Precipitation Wind Pressure Humidity
    00:00 +25°C° 0 mm 3 mps 754 mmHg 53%
    01:00 +24°C° 0 mm 3 mps 754 mmHg 55%
    02:00 +24°C° 0 mm 3 mps 754 mmHg 56%
    03:00 +23°C° 0 mm 2 mps 754 mmHg 56%
    04:00 +23°C° 0 mm 2 mps 754 mmHg 56%
    05:00 +24°C° 0 mm 2 mps 754 mmHg 54%
    06:00 +25°C° 0 mm 2 mps 754 mmHg 52%
    07:00 +26°C° 0 mm 2 mps 754 mmHg 49%
    08:00 +28°C° 0 mm 2 mps 754 mmHg 45%
    09:00 +29°C° 0 mm 2 mps 754 mmHg 41%
    10:00 +31°C° 0 mm 2 mps 753 mmHg 36%
    11:00 +33°C° 0 mm 3 mps 753 mmHg 34%
    12:00 +33°C° 0 mm 3 mps 753 mmHg 32%
    13:00 +34°C° 0 mm 3 mps 752 mmHg 30%
    14:00 +34°C° 0 mm 3 mps 752 mmHg 31%
    15:00 +34°C° 0 mm 3 mps 752 mmHg 32%
    16:00 +34°C° 0 mm 3 mps 752 mmHg 33%
    17:00 +33°C° 0 mm 3 mps 752 mmHg 36%
    18:00 +33°C° 0 mm 3 mps 752 mmHg 40%
    19:00 +31°C° 0 mm 3 mps 751 mmHg 43%
    20:00 +29°C° 0 mm 3 mps 751 mmHg 47%
    21:00 +28°C° 0 mm 3 mps 751 mmHg 51%
    22:00 +27°C° 0 mm 3 mps 751 mmHg 54%
    23:00 +26°C° 0 mm 3 mps 751 mmHg 58%
    Show more